Time,TemperatureF,DewpointF,PressureIn,WindDirection,WindDirectionDegrees,WindSpeedMPH,WindSpeedGustMPH,Humidity,HourlyPrecipIn,Conditions,Clouds,dailyrainin,SoftwareType,DateUTC
2013-08-21 00:00:00,72.8,40.4,29.97,WSW,240,3.0,3.0,31,0.00,,---,0.00,VWS V14.01,2013-08-21 07:00:00,
2013-08-21 00:02:00,72.8,40.4,29.97,West,271,1.0,3.0,31,0.00,,---,0.00,VWS V14.01,2013-08-21 07:02:00,
2013-08-21 00:07:00,72.5,41.0,29.97,WSW,257,2.0,4.0,32,0.00,,---,0.00,VWS V14.01,2013-08-21 07:07:00,
2013-08-21 00:12:00,72.4,40.9,29.97,WSW,245,2.0,4.0,32,0.00,,---,0.00,VWS V14.01,2013-08-21 07:12:00,
2013-08-21 00:17:00,72.1,40.7,29.97,WSW,257,0.0,4.0,32,0.00,,---,0.00,VWS V14.01,2013-08-21 07:17:00,
2013-08-21 00:22:00,71.4,40.0,29.97,WSW,242,3.0,4.0,32,0.00,,---,0.00,VWS V14.01,2013-08-21 07:22:00,
2013-08-21 00:27:00,71.0,40.5,29.97,SW,233,2.0,4.0,33,0.00,,---,0.00,VWS V14.01,2013-08-21 07:27:00,
2013-08-21 00:30:00,71.0,40.5,29.97,SW,236,2.0,4.0,33,0.00,,---,0.00,VWS V14.01,2013-08-21 07:30:00,
2013-08-21 00:32:00,71.1,40.6,29.97,WNW,284,1.0,7.0,33,0.00,,---,0.00,VWS V14.01,2013-08-21 07:32:00,
2013-08-21 00:37:00,71.1,39.8,29.97,West,262,1.0,7.0,32,0.00,,---,0.00,VWS V14.01,2013-08-21 07:37:00,
2013-08-21 00:42:00,71.6,40.2,29.97,West,274,0.0,7.0,32,0.00,,---,0.00,VWS V14.01,2013-08-21 07:42:00,
2013-08-21 00:47:00,71.7,39.5,29.97,West,281,4.0,7.0,31,0.00,,---,0.00,VWS V14.01,2013-08-21 07:47:00,
2013-08-21 00:52:00,71.2,39.9,29.97,West,276,2.0,7.0,32,0.00,,---,0.00,VWS V14.01,2013-08-21 07:52:00,
2013-08-21 00:57:00,70.7,39.4,29.97,WSW,237,1.0,7.0,32,0.00,,---,0.00,VWS V14.01,2013-08-21 07:57:00,
2013-08-21 01:00:00,70.7,39.4,29.97,SW,236,0.0,7.0,32,0.00,,---,0.00,VWS V14.01,2013-08-21 08:00:00,
2013-08-21 01:02:00,70.4,39.2,29.97,West,271,2.0,3.0,32,0.00,,---,0.00,VWS V14.01,2013-08-21 08:02:00,
2013-08-21 01:07:00,70.9,38.0,29.97,WSW,248,3.0,4.0,30,0.00,,---,0.00,VWS V14.01,2013-08-21 08:07:00,
2013-08-21 01:12:00,71.2,37.3,29.97,WSW,250,1.0,4.0,29,0.00,,---,0.00,VWS V14.01,2013-08-21 08:12:00,
2013-08-21 01:17:00,71.2,36.5,29.97,WSW,249,0.0,4.0,28,0.00,,---,0.00,VWS V14.01,2013-08-21 08:17:00,
2013-08-21 01:22:00,71.3,35.6,29.96,West,269,2.0,4.0,27,0.00,,---,0.00,VWS V14.01,2013-08-21 08:22:00,
2013-08-21 01:27:00,71.5,34.8,29.97,WSW,239,1.0,4.0,26,0.00,,---,0.00,VWS V14.01,2013-08-21 08:27:00,
2013-08-21 01:30:00,71.5,33.9,29.97,SW,228,2.0,4.0,25,0.00,,---,0.00,VWS V14.01,2013-08-21 08:30:00,
2013-08-21 01:33:00,72.5,32.6,29.96,West,264,2.0,5.0,23,0.00,,---,0.00,VWS V14.01,2013-08-21 08:33:00,
2013-08-21 01:38:00,72.8,31.8,29.97,WSW,249,1.0,5.0,22,0.00,,---,0.00,VWS V14.01,2013-08-21 08:38:00,
2013-08-21 01:43:00,72.6,32.7,29.96,West,273,1.0,5.0,23,0.00,,---,0.00,VWS V14.01,2013-08-21 08:43:00,
2013-08-21 01:48:00,72.2,32.4,29.96,WSW,245,1.0,5.0,23,0.00,,---,0.00,VWS V14.01,2013-08-21 08:48:00,
2013-08-21 01:53:00,72.0,32.2,29.96,West,259,1.0,5.0,23,0.00,,---,0.00,VWS V14.01,2013-08-21 08:53:00,
2013-08-21 01:58:00,71.6,30.8,29.96,WSW,242,2.0,2.0,22,0.00,,---,0.00,VWS V14.01,2013-08-21 08:58:00,
2013-08-21 02:00:00,71.6,30.8,29.96,SW,229,1.0,5.0,22,0.00,,---,0.00,VWS V14.01,2013-08-21 09:00:00,
2013-08-21 02:03:00,71.1,31.5,29.96,WNW,287,1.0,4.0,23,0.00,,---,0.00,VWS V14.01,2013-08-21 09:03:00,
2013-08-21 02:08:00,70.6,32.1,29.96,WSW,238,1.0,4.0,24,0.00,,---,0.00,VWS V14.01,2013-08-21 09:08:00,
2013-08-21 02:13:00,70.2,31.8,29.96,SW,229,0.0,4.0,24,0.00,,---,0.00,VWS V14.01,2013-08-21 09:13:00,
2013-08-21 02:18:00,69.7,32.3,29.96,SW,228,0.0,4.0,25,0.00,,---,0.00,VWS V14.01,2013-08-21 09:18:00,
2013-08-21 02:23:00,69.6,32.2,29.96,West,262,2.0,4.0,25,0.00,,---,0.00,VWS V14.01,2013-08-21 09:23:00,
2013-08-21 02:28:00,69.4,31.1,29.96,West,274,1.0,1.0,24,0.00,,---,0.00,VWS V14.01,2013-08-21 09:28:00,
2013-08-21 02:30:00,69.4,31.1,29.96,South,190,0.0,4.0,24,0.00,,---,0.00,VWS V14.01,2013-08-21 09:30:00,
2013-08-21 02:33:00,69.0,30.7,29.96,SW,224,1.0,3.0,24,0.00,,---,0.00,VWS V14.01,2013-08-21 09:33:00,
2013-08-21 02:38:00,68.4,32.2,29.96,WSW,257,1.0,3.0,26,0.00,,---,0.00,VWS V14.01,2013-08-21 09:38:00,
2013-08-21 02:43:00,67.7,31.6,29.96,West,264,0.0,3.0,26,0.00,,---,0.00,VWS V14.01,2013-08-21 09:43:00,
2013-08-21 02:48:00,67.2,32.1,29.96,West,269,2.0,3.0,27,0.00,,---,0.00,VWS V14.01,2013-08-21 09:48:00,
2013-08-21 02:53:00,66.6,32.5,29.96,West,266,1.0,3.0,28,0.00,,---,0.00,VWS V14.01,2013-08-21 09:53:00,
2013-08-21 02:58:00,66.3,34.0,29.95,West,264,3.0,3.0,30,0.00,,---,0.00,VWS V14.01,2013-08-21 09:58:00,
2013-08-21 03:00:00,66.3,34.0,29.96,WNW,283,2.0,3.0,30,0.00,,---,0.00,VWS V14.01,2013-08-21 10:00:00,
2013-08-21 03:03:00,66.3,35.6,29.95,West,266,2.0,3.0,32,0.00,,---,0.00,VWS V14.01,2013-08-21 10:03:00,
2013-08-21 03:08:00,66.4,35.7,29.95,West,276,1.0,3.0,32,0.00,,---,0.00,VWS V14.01,2013-08-21 10:08:00,
2013-08-21 03:13:00,66.6,35.0,29.95,West,274,1.0,4.0,31,0.00,,---,0.00,VWS V14.01,2013-08-21 10:13:00,
2013-08-21 03:18:00,67.1,34.7,29.95,West,281,2.0,4.0,30,0.00,,---,0.00,VWS V14.01,2013-08-21 10:18:00,
2013-08-21 03:23:00,67.5,34.2,29.95,West,281,2.0,4.0,29,0.00,,---,0.00,VWS V14.01,2013-08-21 10:23:00,
2013-08-21 03:28:00,67.3,33.1,29.95,WNW,302,1.0,3.0,28,0.00,,---,0.00,VWS V14.01,2013-08-21 10:28:00,
2013-08-21 03:30:00,67.4,33.2,29.95,WNW,297,1.0,4.0,28,0.00,,---,0.00,VWS V14.01,2013-08-21 10:30:00,
2013-08-21 03:33:00,67.4,31.4,29.95,SW,232,1.0,3.0,26,0.00,,---,0.00,VWS V14.01,2013-08-21 10:33:00,
2013-08-21 03:38:00,67.7,29.6,29.95,West,276,1.0,4.0,24,0.00,,---,0.00,VWS V14.01,2013-08-21 10:38:00,
2013-08-21 03:43:00,68.2,25.6,29.95,SW,235,2.0,4.0,20,0.00,,---,0.00,VWS V14.01,2013-08-21 10:43:00,
2013-08-21 03:48:00,68.5,27.1,29.95,West,278,2.0,4.0,21,0.00,,---,0.00,VWS V14.01,2013-08-21 10:48:00,
2013-08-21 03:53:00,68.4,25.8,29.95,West,281,2.0,4.0,20,0.00,,---,0.00,VWS V14.01,2013-08-21 10:53:00,
2013-08-21 03:58:00,69.0,22.4,29.95,WNW,295,2.0,3.0,17,0.00,,---,0.00,VWS V14.01,2013-08-21 10:58:00,
2013-08-21 04:00:00,69.0,23.8,29.95,WNW,285,3.0,4.0,18,0.00,,---,0.00,VWS V14.01,2013-08-21 11:00:00,
2013-08-21 04:03:00,69.6,24.2,29.95,West,260,2.0,5.0,18,0.00,,---,0.00,VWS V14.01,2013-08-21 11:03:00,
2013-08-21 04:08:00,69.2,23.9,29.95,WNW,287,1.0,5.0,18,0.00,,---,0.00,VWS V14.01,2013-08-21 11:08:00,
2013-08-21 04:13:00,68.8,23.6,29.95,WSW,245,2.0,5.0,18,0.00,,---,0.00,VWS V14.01,2013-08-21 11:13:00,
2013-08-21 04:18:00,68.6,22.1,29.95,West,277,3.0,5.0,17,0.00,,---,0.00,VWS V14.01,2013-08-21 11:18:00,
2013-08-21 04:23:00,68.6,23.4,29.95,West,262,2.0,6.0,18,0.00,,---,0.00,VWS V14.01,2013-08-21 11:23:00,
2013-08-21 04:28:00,68.9,22.3,29.95,West,267,3.0,3.0,17,0.00,,---,0.00,VWS V14.01,2013-08-21 11:28:00,
2013-08-21 04:30:00,68.9,22.3,29.95,West,276,2.0,6.0,17,0.00,,---,0.00,VWS V14.01,2013-08-21 11:30:00,
2013-08-21 04:33:00,69.3,21.2,29.95,WSW,253,2.0,5.0,16,0.00,,---,0.00,VWS V14.01,2013-08-21 11:33:00,
2013-08-21 04:38:00,69.7,21.5,29.95,WSW,242,3.0,5.0,16,0.00,,---,0.00,VWS V14.01,2013-08-21 11:38:00,
2013-08-21 04:43:00,69.6,21.5,29.95,West,262,2.0,5.0,16,0.00,,---,0.00,VWS V14.01,2013-08-21 11:43:00,
2013-08-21 04:48:00,69.3,22.6,29.95,WSW,252,2.0,5.0,17,0.00,,---,0.00,VWS V14.01,2013-08-21 11:48:00,
2013-08-21 04:53:00,69.4,19.8,29.95,SW,218,3.0,5.0,15,0.00,,---,0.00,VWS V14.01,2013-08-21 11:53:00,
2013-08-21 04:58:00,70.0,21.8,29.95,WSW,256,1.0,2.0,16,0.00,,---,0.00,VWS V14.01,2013-08-21 11:58:00,
2013-08-21 05:00:00,70.0,21.8,29.95,West,276,2.0,5.0,16,0.00,,---,0.00,VWS V14.01,2013-08-21 12:00:00,
2013-08-21 05:03:00,69.8,23.1,29.95,West,279,2.0,3.0,17,0.00,,---,0.00,VWS V14.01,2013-08-21 12:03:00,
2013-08-21 05:08:00,69.7,21.5,29.95,West,277,3.0,4.0,16,0.00,,---,0.00,VWS V14.01,2013-08-21 12:08:00,
2013-08-21 05:13:00,70.1,21.9,29.95,West,271,1.0,4.0,16,0.00,,---,0.00,VWS V14.01,2013-08-21 12:13:00,
2013-08-21 05:18:00,69.8,23.1,29.95,WSW,248,0.0,4.0,17,0.00,,---,0.00,VWS V14.01,2013-08-21 12:18:00,
2013-08-21 05:23:00,69.7,23.0,29.96,WSW,240,0.0,4.0,17,0.00,,---,0.00,VWS V14.01,2013-08-21 12:23:00,
2013-08-21 05:28:00,69.6,22.9,29.96,West,266,1.0,2.0,17,0.00,,---,0.00,VWS V14.01,2013-08-21 12:28:00,
2013-08-21 05:30:00,69.6,22.9,29.96,West,266,2.0,4.0,17,0.00,,---,0.00,VWS V14.01,2013-08-21 12:30:00,
2013-08-21 05:33:00,69.6,24.2,29.96,WSW,238,0.0,2.0,18,0.00,,---,0.00,VWS V14.01,2013-08-21 12:33:00,
2013-08-21 05:38:00,69.4,24.1,29.96,WSW,249,2.0,3.0,18,0.00,,---,0.00,VWS V14.01,2013-08-21 12:38:00,
2013-08-21 05:43:00,69.0,23.8,29.96,South,176,0.0,3.0,18,0.00,,---,0.00,VWS V14.01,2013-08-21 12:43:00,
2013-08-21 05:48:00,68.4,23.3,29.96,South,174,2.0,3.0,18,0.00,,---,0.00,VWS V14.01,2013-08-21 12:48:00,
2013-08-21 05:53:00,68.3,23.2,29.96,West,259,0.0,3.0,18,0.00,,---,0.00,VWS V14.01,2013-08-21 12:53:00,
2013-08-21 05:58:00,68.1,24.3,29.96,SSE,150,0.0,0.0,19,0.00,,---,0.00,VWS V14.01,2013-08-21 12:58:00,
2013-08-21 06:00:00,68.1,24.3,29.96,SSE,150,0.0,3.0,19,0.00,,---,0.00,VWS V14.01,2013-08-21 13:00:00,
2013-08-21 06:03:00,67.7,24.0,29.96,SSE,153,0.0,1.0,19,0.00,,---,0.00,VWS V14.01,2013-08-21 13:03:00,
2013-08-21 06:08:00,67.4,23.7,29.97,SSW,201,2.0,2.0,19,0.00,,---,0.00,VWS V14.01,2013-08-21 13:08:00,
2013-08-21 06:13:00,67.3,23.7,29.97,West,274,0.0,2.0,19,0.00,,---,0.00,VWS V14.01,2013-08-21 13:13:00,
2013-08-21 06:18:00,66.8,24.5,29.97,West,261,1.0,2.0,20,0.00,,---,0.00,VWS V14.01,2013-08-21 13:18:00,
2013-08-21 06:23:00,66.3,24.1,29.97,West,269,1.0,2.0,20,0.00,,---,0.00,VWS V14.01,2013-08-21 13:23:00,
2013-08-21 06:28:00,65.9,24.9,29.97,WSW,240,0.0,0.0,21,0.00,,---,0.00,VWS V14.01,2013-08-21 13:28:00,
2013-08-21 06:30:00,65.9,24.9,29.97,WSW,240,0.0,2.0,21,0.00,,---,0.00,VWS V14.01,2013-08-21 13:30:00,
2013-08-21 06:33:00,65.8,24.8,29.97,West,273,1.0,1.0,21,0.00,,---,0.00,VWS V14.01,2013-08-21 13:33:00,
2013-08-21 06:38:00,66.0,25.0,29.98,SW,235,1.0,2.0,21,0.00,,---,0.00,VWS V14.01,2013-08-21 13:38:00,
2013-08-21 06:43:00,66.4,25.3,29.98,SW,214,0.0,4.0,21,0.00,,---,0.00,VWS V14.01,2013-08-21 13:43:00,
2013-08-21 06:48:00,67.2,24.8,29.98,SSW,205,1.0,4.0,20,0.00,,---,0.00,VWS V14.01,2013-08-21 13:48:00,
2013-08-21 06:53:00,68.1,24.3,29.98,West,269,2.0,4.0,19,0.00,,---,0.00,VWS V14.01,2013-08-21 13:53:00,
2013-08-21 06:58:00,69.1,23.9,29.98,WSW,258,2.0,2.0,18,0.00,,---,0.00,VWS V14.01,2013-08-21 13:58:00,
2013-08-21 07:00:00,69.0,23.8,29.98,West,274,2.0,4.0,18,0.00,,---,0.00,VWS V14.01,2013-08-21 14:00:00,
2013-08-21 07:03:00,70.1,23.3,29.98,WSW,248,0.0,3.0,17,0.00,,---,0.00,VWS V14.01,2013-08-21 14:03:00,
2013-08-21 07:08:00,70.5,23.6,29.98,WSW,248,3.0,4.0,17,0.00,,---,0.00,VWS V14.01,2013-08-21 14:08:00,
2013-08-21 07:13:00,70.5,23.6,29.98,WNW,284,1.0,5.0,17,0.00,,---,0.00,VWS V14.01,2013-08-21 14:13:00,
2013-08-21 07:18:00,70.5,25.0,29.98,West,262,3.0,5.0,18,0.00,,---,0.00,VWS V14.01,2013-08-21 14:18:00,
2013-08-21 07:23:00,70.4,24.9,29.99,WSW,255,2.0,5.0,18,0.00,,---,0.00,VWS V14.01,2013-08-21 14:23:00,
2013-08-21 07:28:00,70.2,24.7,29.98,SW,236,1.0,5.0,18,0.00,,---,0.00,VWS V14.01,2013-08-21 14:28:00,
2013-08-21 07:30:00,70.2,24.7,29.98,SW,236,1.0,5.0,18,0.00,,---,0.00,VWS V14.01,2013-08-21 14:30:00,
2013-08-21 07:32:00,70.3,24.8,29.99,WSW,245,2.0,4.0,18,0.00,,---,0.00,VWS V14.01,2013-08-21 14:32:00,
2013-08-21 07:37:00,71.0,24.0,29.99,West,271,0.0,4.0,17,0.00,,---,0.00,VWS V14.01,2013-08-21 14:37:00,
2013-08-21 07:42:00,72.4,23.7,29.99,WSW,248,3.0,4.0,16,0.00,,---,0.00,VWS V14.01,2013-08-21 14:42:00,
2013-08-21 07:47:00,73.8,24.8,29.99,WNW,302,3.0,4.0,16,0.00,,---,0.00,VWS V14.01,2013-08-21 14:47:00,
2013-08-21 07:52:00,75.2,24.4,29.99,WSW,248,2.0,4.0,15,0.00,,---,0.00,VWS V14.01,2013-08-21 14:52:00,
2013-08-21 07:57:00,75.9,25.0,29.99,West,276,1.0,4.0,15,0.00,,---,0.00,VWS V14.01,2013-08-21 14:57:00,
2013-08-21 08:00:00,76.0,25.1,29.99,West,274,1.0,4.0,15,0.00,,---,0.00,VWS V14.01,2013-08-21 15:00:00,
2013-08-21 08:02:00,76.4,25.4,29.99,WNW,283,2.0,3.0,15,0.00,,---,0.00,VWS V14.01,2013-08-21 15:02:00,
2013-08-21 08:07:00,77.0,25.9,29.99,NW,312,1.0,4.0,15,0.00,,---,0.00,VWS V14.01,2013-08-21 15:07:00,
2013-08-21 08:12:00,77.8,24.8,30.00,NW,308,4.0,4.0,14,0.00,,---,0.00,VWS V14.01,2013-08-21 15:12:00,
2013-08-21 08:17:00,77.9,26.6,30.00,West,271,1.0,5.0,15,0.00,,---,0.00,VWS V14.01,2013-08-21 15:17:00,
2013-08-21 08:22:00,77.9,24.9,30.00,NW,308,3.0,5.0,14,0.00,,---,0.00,VWS V14.01,2013-08-21 15:22:00,
2013-08-21 08:27:00,78.5,25.4,30.00,NW,319,2.0,5.0,14,0.00,,---,0.00,VWS V14.01,2013-08-21 15:27:00,
2013-08-21 08:30:00,78.5,25.4,30.00,NW,317,2.0,5.0,14,0.00,,---,0.00,VWS V14.01,2013-08-21 15:30:00,
2013-08-21 08:32:00,79.2,25.9,30.00,SSW,195,0.0,4.0,14,0.00,,---,0.00,VWS V14.01,2013-08-21 15:32:00,
2013-08-21 08:37:00,80.4,26.9,30.00,West,270,1.0,4.0,14,0.00,,---,0.00,VWS V14.01,2013-08-21 15:37:00,
2013-08-21 08:42:00,81.4,25.9,30.00,WNW,285,2.0,4.0,13,0.00,,---,0.00,VWS V14.01,2013-08-21 15:42:00,
2013-08-21 08:47:00,82.5,24.8,30.00,SW,229,2.0,4.0,12,0.00,,---,0.00,VWS V14.01,2013-08-21 15:47:00,
2013-08-21 08:52:00,83.5,23.5,30.00,NW,313,3.0,4.0,11,0.00,,---,0.00,VWS V14.01,2013-08-21 15:52:00,
2013-08-21 08:57:00,84.3,26.2,30.00,West,263,2.0,4.0,12,0.00,,---,0.00,VWS V14.01,2013-08-21 15:57:00,
2013-08-21 09:00:00,84.4,26.3,30.00,West,263,1.0,4.0,12,0.00,,---,0.00,VWS V14.01,2013-08-21 16:00:00,
2013-08-21 09:02:00,85.6,25.1,30.00,West,262,0.0,2.0,11,0.00,,---,0.00,VWS V14.01,2013-08-21 16:02:00,
2013-08-21 09:07:00,86.4,21.0,30.00,NNW,338,2.0,4.0,9,0.00,,---,0.00,VWS V14.01,2013-08-21 16:07:00,
2013-08-21 09:12:00,86.5,21.0,30.00,West,269,2.0,4.0,9,0.00,,---,0.00,VWS V14.01,2013-08-21 16:12:00,
2013-08-21 09:17:00,86.8,21.3,30.00,NW,322,2.0,4.0,9,0.00,,---,0.00,VWS V14.01,2013-08-21 16:17:00,
2013-08-21 09:22:00,87.5,24.3,30.00,West,276,1.0,5.0,10,0.00,,---,0.00,VWS V14.01,2013-08-21 16:22:00,
2013-08-21 09:27:00,88.8,27.6,29.99,SW,228,1.0,5.0,11,0.00,,---,0.00,VWS V14.01,2013-08-21 16:27:00,
2013-08-21 09:30:00,88.8,27.6,29.99,SW,228,1.0,5.0,11,0.00,,---,0.00,VWS V14.01,2013-08-21 16:30:00,
2013-08-21 09:32:00,89.7,26.0,29.99,SW,218,2.0,5.0,10,0.00,,---,0.00,VWS V14.01,2013-08-21 16:32:00,
2013-08-21 09:37:00,90.7,26.7,30.00,SSW,203,0.0,5.0,10,0.00,,---,0.00,VWS V14.01,2013-08-21 16:37:00,
2013-08-21 09:42:00,91.2,24.6,30.00,SSW,194,5.0,6.0,9,0.00,,---,0.00,VWS V14.01,2013-08-21 16:42:00,
2013-08-21 09:47:00,91.1,21.7,30.00,SE,132,3.0,11.0,8,0.00,,---,0.00,VWS V14.01,2013-08-21 16:47:00,
2013-08-21 09:52:00,90.6,24.1,30.00,SSW,197,6.0,13.0,9,0.00,,---,0.00,VWS V14.01,2013-08-21 16:52:00,
2013-08-21 09:57:00,90.6,24.1,30.00,South,178,4.0,13.0,9,0.00,,---,0.00,VWS V14.01,2013-08-21 16:57:00,
2013-08-21 10:00:00,90.6,24.1,30.00,SSW,193,3.0,13.0,9,0.00,,---,0.00,VWS V14.01,2013-08-21 17:00:00,
2013-08-21 10:02:00,90.9,24.3,30.00,SSW,204,1.0,5.0,9,0.00,,---,0.00,VWS V14.01,2013-08-21 17:02:00,
2013-08-21 10:07:00,91.2,24.6,30.00,NW,312,1.0,5.0,9,0.00,,---,0.00,VWS V14.01,2013-08-21 17:07:00,
2013-08-21 10:12:00,92.1,22.4,30.00,South,191,2.0,8.0,8,0.00,,---,0.00,VWS V14.01,2013-08-21 17:12:00,
2013-08-21 10:17:00,92.9,23.0,30.00,SE,137,3.0,8.0,8,0.00,,---,0.00,VWS V14.01,2013-08-21 17:17:00,
2013-08-21 10:22:00,92.4,22.6,30.00,SE,139,4.0,8.0,8,0.00,,---,0.00,VWS V14.01,2013-08-21 17:22:00,
2013-08-21 10:27:00,92.8,22.9,30.00,South,186,2.0,8.0,8,0.00,,---,0.00,VWS V14.01,2013-08-21 17:27:00,
2013-08-21 10:30:00,92.8,22.9,30.00,SSE,165,2.0,8.0,8,0.00,,---,0.00,VWS V14.01,2013-08-21 17:30:00,
2013-08-21 10:32:00,92.8,22.9,30.00,South,181,4.0,7.0,8,0.00,,---,0.00,VWS V14.01,2013-08-21 17:32:00,
2013-08-21 10:37:00,92.8,22.9,30.00,WSW,249,0.0,7.0,8,0.00,,---,0.00,VWS V14.01,2013-08-21 17:37:00,
2013-08-21 10:42:00,92.9,23.0,30.00,SSE,147,3.0,7.0,8,0.00,,---,0.00,VWS V14.01,2013-08-21 17:42:00,
2013-08-21 10:47:00,93.2,23.2,30.00,South,174,6.0,8.0,8,0.00,,---,0.00,VWS V14.01,2013-08-21 17:47:00,
2013-08-21 10:52:00,93.6,23.5,30.00,SSE,162,6.0,8.0,8,0.00,,---,0.00,VWS V14.01,2013-08-21 17:52:00,
2013-08-21 10:57:00,92.9,25.8,30.00,ESE,112,0.0,8.0,9,0.00,,---,0.00,VWS V14.01,2013-08-21 17:57:00,
2013-08-21 11:00:00,92.9,25.8,30.00,ESE,110,0.0,8.0,9,0.00,,---,0.00,VWS V14.01,2013-08-21 18:00:00,
2013-08-21 11:02:00,93.7,26.4,30.00,SE,136,3.0,3.0,9,0.00,,---,0.00,VWS V14.01,2013-08-21 18:02:00,
2013-08-21 11:07:00,93.8,23.7,30.00,SW,228,2.0,9.0,8,0.00,,---,0.00,VWS V14.01,2013-08-21 18:07:00,
2013-08-21 11:12:00,94.1,26.7,29.99,SW,215,2.0,10.0,9,0.00,,---,0.00,VWS V14.01,2013-08-21 18:12:00,
2013-08-21 11:17:00,94.6,27.1,30.00,SW,235,3.0,10.0,9,0.00,,---,0.00,VWS V14.01,2013-08-21 18:17:00,
2013-08-21 11:22:00,94.8,27.2,29.99,SSE,149,7.0,10.0,9,0.00,,---,0.00,VWS V14.01,2013-08-21 18:22:00,
2013-08-21 11:27:00,95.1,30.0,29.99,SSW,201,2.0,10.0,10,0.00,,---,0.00,VWS V14.01,2013-08-21 18:27:00,
2013-08-21 11:30:00,95.1,30.0,29.99,South,190,4.0,10.0,10,0.00,,---,0.00,VWS V14.01,2013-08-21 18:30:00,
2013-08-21 11:32:00,95.2,30.1,29.99,SW,219,2.0,10.0,10,0.00,,---,0.00,VWS V14.01,2013-08-21 18:32:00,
2013-08-21 11:37:00,95.3,30.2,29.99,SSE,155,7.0,10.0,10,0.00,,---,0.00,VWS V14.01,2013-08-21 18:37:00,
2013-08-21 11:42:00,95.1,30.0,29.99,SE,139,4.0,11.0,10,0.00,,---,0.00,VWS V14.01,2013-08-21 18:42:00,
2013-08-21 11:47:00,95.3,30.2,29.99,South,170,5.0,12.0,10,0.00,,---,0.00,VWS V14.01,2013-08-21 18:47:00,
2013-08-21 11:52:00,95.3,30.2,29.99,SE,135,4.0,12.0,10,0.00,,---,0.00,VWS V14.01,2013-08-21 18:52:00,
2013-08-21 11:57:00,94.9,29.9,29.99,SE,142,5.0,12.0,10,0.00,,---,0.00,VWS V14.01,2013-08-21 18:57:00,
2013-08-21 12:00:00,94.9,29.9,29.99,SSE,165,2.0,12.0,10,0.00,,---,0.00,VWS V14.01,2013-08-21 19:00:00,
2013-08-21 12:02:00,95.2,30.1,29.99,SSW,205,12.0,15.0,10,0.00,,---,0.00,VWS V14.01,2013-08-21 19:02:00,
2013-08-21 12:07:00,95.2,30.1,29.99,SSW,207,7.0,15.0,10,0.00,,---,0.00,VWS V14.01,2013-08-21 19:07:00,
2013-08-21 12:12:00,95.9,33.0,29.98,SSE,159,4.0,15.0,11,0.00,,---,0.00,VWS V14.01,2013-08-21 19:12:00,
2013-08-21 12:17:00,96.5,28.5,29.98,WSW,253,1.0,16.0,9,0.00,,---,0.00,VWS V14.01,2013-08-21 19:17:00,
2013-08-21 12:22:00,97.4,34.2,29.98,SSW,200,6.0,16.0,11,0.00,,---,0.00,VWS V14.01,2013-08-21 19:22:00,
2013-08-21 12:27:00,97.2,31.6,29.98,SSE,165,6.0,16.0,10,0.00,,---,0.00,VWS V14.01,2013-08-21 19:27:00,
2013-08-21 12:30:00,97.1,31.6,29.98,SSE,167,9.0,16.0,10,0.00,,---,0.00,VWS V14.01,2013-08-21 19:30:00,
2013-08-21 12:32:00,96.5,31.1,29.98,SW,231,8.0,15.0,10,0.00,,---,0.00,VWS V14.01,2013-08-21 19:32:00,
2013-08-21 12:37:00,96.3,31.0,29.98,SSW,207,6.0,15.0,10,0.00,,---,0.00,VWS V14.01,2013-08-21 19:37:00,
2013-08-21 12:42:00,96.3,33.3,29.98,South,190,14.0,16.0,11,0.00,,---,0.00,VWS V14.01,2013-08-21 19:42:00,
2013-08-21 12:47:00,96.5,33.5,29.97,South,188,12.0,16.0,11,0.00,,---,0.00,VWS V14.01,2013-08-21 19:47:00,
2013-08-21 12:52:00,96.4,33.4,29.97,SSE,155,7.0,17.0,11,0.00,,---,0.00,VWS V14.01,2013-08-21 19:52:00,
2013-08-21 12:57:00,96.1,33.2,29.97,SW,218,7.0,17.0,11,0.00,,---,0.00,VWS V14.01,2013-08-21 19:57:00,
2013-08-21 13:00:00,96.1,33.2,29.97,SW,221,16.0,17.0,11,0.00,,---,0.00,VWS V14.01,2013-08-21 20:00:00,
2013-08-21 13:02:00,96.3,35.5,29.97,SW,218,12.0,19.0,12,0.00,,---,0.00,VWS V14.01,2013-08-21 20:02:00,
2013-08-21 13:07:00,96.4,35.6,29.97,SW,217,5.0,19.0,12,0.00,,---,0.00,VWS V14.01,2013-08-21 20:07:00,
2013-08-21 13:12:00,96.5,39.6,29.97,South,190,11.0,19.0,14,0.00,,---,0.00,VWS V14.01,2013-08-21 20:12:00,
2013-08-21 13:17:00,96.3,37.5,29.97,SSW,205,11.0,19.0,13,0.00,,---,0.00,VWS V14.01,2013-08-21 20:17:00,
2013-08-21 13:22:00,96.2,33.2,29.96,SSW,212,9.0,19.0,11,0.00,,---,0.00,VWS V14.01,2013-08-21 20:22:00,
2013-08-21 13:27:00,96.8,37.9,29.96,SSW,201,8.0,19.0,13,0.00,,---,0.00,VWS V14.01,2013-08-21 20:27:00,
2013-08-21 13:30:00,96.9,36.0,29.96,SSW,204,10.0,19.0,12,0.00,,---,0.00,VWS V14.01,2013-08-21 20:30:00,
2013-08-21 13:32:00,96.9,38.0,29.96,SSW,198,14.0,20.0,13,0.00,,---,0.00,VWS V14.01,2013-08-21 20:32:00,
2013-08-21 13:37:00,96.9,33.8,29.96,SSW,207,16.0,20.0,11,0.00,,---,0.00,VWS V14.01,2013-08-21 20:37:00,
2013-08-21 13:42:00,96.4,37.6,29.96,SSE,159,16.0,22.0,13,0.00,,---,0.00,VWS V14.01,2013-08-21 20:42:00,
2013-08-21 13:47:00,96.3,35.5,29.96,South,176,14.0,22.0,12,0.00,,---,0.00,VWS V14.01,2013-08-21 20:47:00,
2013-08-21 13:52:00,96.2,35.4,29.96,South,190,5.0,22.0,12,0.00,,---,0.00,VWS V14.01,2013-08-21 20:52:00,
2013-08-21 13:57:00,96.7,37.8,29.95,SSW,203,13.0,22.0,13,0.00,,---,0.00,VWS V14.01,2013-08-21 20:57:00,
2013-08-21 14:00:00,96.7,37.8,29.95,SSW,208,13.0,22.0,13,0.00,,---,0.00,VWS V14.01,2013-08-21 21:00:00,
2013-08-21 14:02:00,96.7,37.8,29.95,SSW,200,7.0,20.0,13,0.00,,---,0.00,VWS V14.01,2013-08-21 21:02:00,
2013-08-21 14:07:00,96.8,37.9,29.95,West,281,8.0,20.0,13,0.00,,---,0.00,VWS V14.01,2013-08-21 21:07:00,
2013-08-21 14:12:00,96.6,39.7,29.95,SW,218,15.0,20.0,14,0.00,,---,0.00,VWS V14.01,2013-08-21 21:12:00,
2013-08-21 14:17:00,96.4,37.6,29.94,South,188,8.0,20.0,13,0.00,,---,0.00,VWS V14.01,2013-08-21 21:17:00,
2013-08-21 14:22:00,96.7,39.7,29.95,SSW,203,16.0,20.0,14,0.00,,---,0.00,VWS V14.01,2013-08-21 21:22:00,
2013-08-21 14:27:00,96.7,41.5,29.94,SSW,207,12.0,20.0,15,0.00,,---,0.00,VWS V14.01,2013-08-21 21:27:00,
2013-08-21 14:30:00,96.7,39.7,29.94,SSW,201,10.0,20.0,14,0.00,,---,0.00,VWS V14.01,2013-08-21 21:30:00,
2013-08-21 14:32:00,96.3,39.4,29.95,SSW,210,14.0,25.0,14,0.00,,---,0.00,VWS V14.01,2013-08-21 21:32:00,
2013-08-21 14:37:00,95.6,38.9,29.94,SW,219,16.0,26.0,14,0.00,,---,0.00,VWS V14.01,2013-08-21 21:37:00,
2013-08-21 14:42:00,96.4,39.5,29.94,SW,222,11.0,26.0,14,0.00,,---,0.00,VWS V14.01,2013-08-21 21:42:00,
2013-08-21 14:47:00,96.3,37.5,29.94,SW,217,14.0,26.0,13,0.00,,---,0.00,VWS V14.01,2013-08-21 21:47:00,
2013-08-21 14:52:00,96.3,41.2,29.94,SW,221,17.0,26.0,15,0.00,,---,0.00,VWS V14.01,2013-08-21 21:52:00,
2013-08-21 14:57:00,96.2,39.3,29.93,SW,224,13.0,26.0,14,0.00,,---,0.00,VWS V14.01,2013-08-21 21:57:00,
2013-08-21 15:00:00,96.2,39.3,29.93,South,191,14.0,26.0,14,0.00,,---,0.00,VWS V14.01,2013-08-21 22:00:00,
2013-08-21 15:02:00,96.4,39.5,29.93,WSW,253,9.0,19.0,14,0.00,,---,0.00,VWS V14.01,2013-08-21 22:02:00,
2013-08-21 15:07:00,96.0,39.2,29.93,SSW,195,11.0,22.0,14,0.00,,---,0.00,VWS V14.01,2013-08-21 22:07:00,
2013-08-21 15:12:00,96.2,39.3,29.93,SSE,162,8.0,23.0,14,0.00,,---,0.00,VWS V14.01,2013-08-21 22:12:00,
2013-08-21 15:17:00,96.1,42.7,29.93,SSW,207,15.0,23.0,16,0.00,,---,0.00,VWS V14.01,2013-08-21 22:17:00,
2013-08-21 15:22:00,95.6,40.6,29.93,South,177,12.0,24.0,15,0.00,,---,0.00,VWS V14.01,2013-08-21 22:22:00,
2013-08-21 15:27:00,95.5,38.8,29.93,SSW,198,13.0,24.0,14,0.00,,---,0.00,VWS V14.01,2013-08-21 22:27:00,
2013-08-21 15:30:00,95.6,38.9,29.93,SSE,165,14.0,24.0,14,0.00,,---,0.00,VWS V14.01,2013-08-21 22:30:00,
2013-08-21 15:32:00,95.4,43.7,29.93,SW,235,15.0,22.0,17,0.00,,---,0.00,VWS V14.01,2013-08-21 22:32:00,
2013-08-21 15:37:00,95.4,40.5,29.93,SW,228,14.0,23.0,15,0.00,,---,0.00,VWS V14.01,2013-08-21 22:37:00,
2013-08-21 15:42:00,95.1,40.2,29.92,SW,215,13.0,23.0,15,0.00,,---,0.00,VWS V14.01,2013-08-21 22:42:00,
2013-08-21 15:47:00,95.2,40.3,29.92,South,191,15.0,23.0,15,0.00,,---,0.00,VWS V14.01,2013-08-21 22:47:00,
2013-08-21 15:52:00,95.1,40.2,29.92,SSW,193,14.0,24.0,15,0.00,,---,0.00,VWS V14.01,2013-08-21 22:52:00,
2013-08-21 15:57:00,95.1,38.5,29.92,SW,214,13.0,24.0,14,0.00,,---,0.00,VWS V14.01,2013-08-21 22:57:00,
2013-08-21 16:00:00,95.1,38.5,29.92,SSW,204,14.0,24.0,14,0.00,,---,0.00,VWS V14.01,2013-08-21 23:00:00,
2013-08-21 16:02:00,95.0,41.8,29.92,SSW,201,13.0,23.0,16,0.00,,---,0.00,VWS V14.01,2013-08-21 23:02:00,
2013-08-21 16:07:00,94.8,40.0,29.92,South,177,18.0,23.0,15,0.00,,---,0.00,VWS V14.01,2013-08-21 23:07:00,
2013-08-21 16:12:00,95.0,38.4,29.92,South,184,12.0,23.0,14,0.00,,---,0.00,VWS V14.01,2013-08-21 23:12:00,
2013-08-21 16:17:00,95.2,38.5,29.92,SSW,212,8.0,23.0,14,0.00,,---,0.00,VWS V14.01,2013-08-21 23:17:00,
2013-08-21 16:22:00,95.3,38.6,29.92,West,274,7.0,23.0,14,0.00,,---,0.00,VWS V14.01,2013-08-21 23:22:00,
2013-08-21 16:27:00,95.0,38.4,29.92,SW,217,6.0,23.0,14,0.00,,---,0.00,VWS V14.01,2013-08-21 23:27:00,
2013-08-21 16:30:00,95.1,38.5,29.92,SW,221,15.0,23.0,14,0.00,,---,0.00,VWS V14.01,2013-08-21 23:30:00,
2013-08-21 16:32:00,95.3,38.6,29.92,SSW,211,10.0,18.0,14,0.00,,---,0.00,VWS V14.01,2013-08-21 23:32:00,
2013-08-21 16:37:00,95.4,38.7,29.92,South,188,2.0,19.0,14,0.00,,---,0.00,VWS V14.01,2013-08-21 23:37:00,
2013-08-21 16:42:00,95.2,38.5,29.92,SSW,208,11.0,19.0,14,0.00,,---,0.00,VWS V14.01,2013-08-21 23:42:00,
2013-08-21 16:47:00,95.2,36.7,29.91,SSW,212,5.0,19.0,13,0.00,,---,0.00,VWS V14.01,2013-08-21 23:47:00,
2013-08-21 16:52:00,95.2,38.5,29.91,West,259,2.0,19.0,14,0.00,,---,0.00,VWS V14.01,2013-08-21 23:52:00,
2013-08-21 16:57:00,95.5,38.8,29.91,SSW,205,5.0,19.0,14,0.00,,---,0.00,VWS V14.01,2013-08-21 23:57:00,
2013-08-21 17:00:00,95.5,38.8,29.91,SSW,197,4.0,19.0,14,0.00,,---,0.00,VWS V14.01,2013-08-22 00:00:00,
2013-08-21 17:02:00,95.5,38.8,29.91,South,190,5.0,11.0,14,0.00,,---,0.00,VWS V14.01,2013-08-22 00:02:00,
2013-08-21 17:07:00,95.2,40.3,29.91,South,177,2.0,13.0,15,0.00,,---,0.00,VWS V14.01,2013-08-22 00:07:00,
2013-08-21 17:12:00,94.7,38.2,29.91,SSW,210,10.0,14.0,14,0.00,,---,0.00,VWS V14.01,2013-08-22 00:12:00,
2013-08-21 17:17:00,94.2,39.5,29.91,South,191,11.0,21.0,15,0.00,,---,0.00,VWS V14.01,2013-08-22 00:17:00,
2013-08-21 17:22:00,93.8,40.9,29.90,SSE,152,3.0,21.0,16,0.00,,---,0.00,VWS V14.01,2013-08-22 00:22:00,
2013-08-21 17:27:00,93.8,40.9,29.91,SW,214,4.0,21.0,16,0.00,,---,0.00,VWS V14.01,2013-08-22 00:27:00,
2013-08-21 17:30:00,93.9,42.5,29.91,SW,217,5.0,21.0,17,0.00,,---,0.00,VWS V14.01,2013-08-22 00:30:00,
2013-08-21 17:32:00,93.4,40.5,29.90,South,190,7.0,19.0,16,0.00,,---,0.00,VWS V14.01,2013-08-22 00:32:00,
2013-08-21 17:37:00,93.4,42.1,29.90,SW,215,9.0,19.0,17,0.00,,---,0.00,VWS V14.01,2013-08-22 00:37:00,
2013-08-21 17:42:00,93.2,40.4,29.90,SW,220,2.0,19.0,16,0.00,,---,0.00,VWS V14.01,2013-08-22 00:42:00,
2013-08-21 17:47:00,92.9,41.7,29.90,West,260,4.0,19.0,17,0.00,,---,0.00,VWS V14.01,2013-08-22 00:47:00,
2013-08-21 17:52:00,92.8,43.1,29.90,NE,50,1.0,19.0,18,0.00,,---,0.00,VWS V14.01,2013-08-22 00:52:00,
2013-08-21 17:57:00,93.2,42.0,29.91,SSE,151,3.0,19.0,17,0.00,,---,0.00,VWS V14.01,2013-08-22 00:57:00,
2013-08-21 18:00:00,93.2,42.0,29.91,SW,228,1.0,19.0,17,0.00,,---,0.00,VWS V14.01,2013-08-22 01:00:00,
2013-08-21 18:02:00,93.2,43.4,29.91,SW,229,2.0,13.0,18,0.00,,---,0.00,VWS V14.01,2013-08-22 01:02:00,
2013-08-21 18:07:00,92.6,43.0,29.91,South,188,3.0,15.0,18,0.00,,---,0.00,VWS V14.01,2013-08-22 01:07:00,
2013-08-21 18:12:00,92.4,42.8,29.90,SSW,207,9.0,15.0,18,0.00,,---,0.00,VWS V14.01,2013-08-22 01:12:00,
2013-08-21 18:17:00,92.0,45.2,29.91,WNW,291,3.0,18.0,20,0.00,,---,0.00,VWS V14.01,2013-08-22 01:17:00,
2013-08-21 18:22:00,91.5,43.5,29.91,South,172,2.0,18.0,19,0.00,,---,0.00,VWS V14.01,2013-08-22 01:22:00,
2013-08-21 18:27:00,91.3,44.7,29.91,NW,319,0.0,18.0,20,0.00,,---,0.00,VWS V14.01,2013-08-22 01:27:00,
2013-08-21 18:30:00,91.3,44.7,29.91,SE,135,1.0,18.0,20,0.00,,---,0.00,VWS V14.01,2013-08-22 01:30:00,
2013-08-21 18:32:00,91.4,42.0,29.91,SW,228,3.0,7.0,18,0.00,,---,0.00,VWS V14.01,2013-08-22 01:32:00,
2013-08-21 18:37:00,91.2,43.2,29.91,West,259,1.0,12.0,19,0.00,,---,0.00,VWS V14.01,2013-08-22 01:37:00,
2013-08-21 18:42:00,91.1,41.7,29.91,NW,312,1.0,12.0,18,0.00,,---,0.00,VWS V14.01,2013-08-22 01:42:00,
2013-08-21 18:47:00,90.9,41.6,29.92,West,262,3.0,12.0,18,0.00,,---,0.00,VWS V14.01,2013-08-22 01:47:00,
2013-08-21 18:52:00,90.4,41.2,29.92,West,259,2.0,12.0,18,0.00,,---,0.00,VWS V14.01,2013-08-22 01:52:00,
2013-08-21 18:57:00,90.1,39.5,29.92,WSW,252,2.0,12.0,17,0.00,,---,0.00,VWS V14.01,2013-08-22 01:57:00,
2013-08-21 19:00:00,90.0,39.4,29.92,WSW,255,0.0,12.0,17,0.00,,---,0.00,VWS V14.01,2013-08-22 02:00:00,
2013-08-21 19:02:00,89.7,39.1,29.92,WSW,257,2.0,6.0,17,0.00,,---,0.00,VWS V14.01,2013-08-22 02:02:00,
2013-08-21 19:07:00,89.0,38.6,29.92,NW,308,2.0,6.0,17,0.00,,---,0.00,VWS V14.01,2013-08-22 02:07:00,
2013-08-21 19:12:00,88.4,38.1,29.93,NW,316,2.0,6.0,17,0.00,,---,0.00,VWS V14.01,2013-08-22 02:12:00,
2013-08-21 19:17:00,87.9,37.7,29.93,WNW,302,2.0,6.0,17,0.00,,---,0.00,VWS V14.01,2013-08-22 02:17:00,
2013-08-21 19:22:00,87.4,37.3,29.93,WNW,302,2.0,6.0,17,0.00,,---,0.00,VWS V14.01,2013-08-22 02:22:00,
2013-08-21 19:27:00,87.0,37.0,29.93,NNW,345,2.0,7.0,17,0.00,,---,0.00,VWS V14.01,2013-08-22 02:27:00,
2013-08-21 19:30:00,87.0,37.0,29.93,NNW,342,2.0,7.0,17,0.00,,---,0.00,VWS V14.01,2013-08-22 02:30:00,
2013-08-21 19:32:00,86.8,36.8,29.93,NW,314,1.0,4.0,17,0.00,,---,0.00,VWS V14.01,2013-08-22 02:32:00,
2013-08-21 19:37:00,86.3,37.8,29.94,NW,319,1.0,4.0,18,0.00,,---,0.00,VWS V14.01,2013-08-22 02:37:00,
2013-08-21 19:42:00,85.6,37.3,29.94,NW,313,2.0,7.0,18,0.00,,---,0.00,VWS V14.01,2013-08-22 02:42:00,
2013-08-21 19:47:00,85.2,37.0,29.94,NNW,333,2.0,7.0,18,0.00,,---,0.00,VWS V14.01,2013-08-22 02:47:00,
2013-08-21 19:52:00,85.0,36.8,29.94,WNW,302,4.0,7.0,18,0.00,,---,0.00,VWS V14.01,2013-08-22 02:52:00,
2013-08-21 19:57:00,85.3,35.6,29.94,NW,323,4.0,8.0,17,0.00,,---,0.00,VWS V14.01,2013-08-22 02:57:00,
2013-08-21 20:00:00,85.2,37.0,29.94,NW,319,5.0,8.0,18,0.00,,---,0.00,VWS V14.01,2013-08-22 03:00:00,
2013-08-21 20:02:00,84.8,35.2,29.95,WNW,302,3.0,6.0,17,0.00,,---,0.00,VWS V14.01,2013-08-22 03:02:00,
2013-08-21 20:07:00,84.8,36.6,29.95,North,352,6.0,6.0,18,0.00,,---,0.00,VWS V14.01,2013-08-22 03:07:00,
2013-08-21 20:12:00,84.7,36.5,29.95,NW,315,3.0,9.0,18,0.00,,---,0.00,VWS V14.01,2013-08-22 03:12:00,
2013-08-21 20:17:00,84.6,37.8,29.95,NW,308,5.0,9.0,19,0.00,,---,0.00,VWS V14.01,2013-08-22 03:17:00,
2013-08-21 20:22:00,84.8,36.6,29.95,WNW,302,6.0,10.0,18,0.00,,---,0.00,VWS V14.01,2013-08-22 03:22:00,
2013-08-21 20:27:00,84.9,36.7,29.95,NE,37,5.0,10.0,18,0.00,,---,0.00,VWS V14.01,2013-08-22 03:27:00,
2013-08-21 20:30:00,84.9,36.7,29.95,North,359,3.0,10.0,18,0.00,,---,0.00,VWS V14.01,2013-08-22 03:30:00,
2013-08-21 20:32:00,84.8,38.0,29.96,SW,230,0.0,5.0,19,0.00,,---,0.00,VWS V14.01,2013-08-22 03:32:00,
2013-08-21 20:37:00,84.5,35.0,29.96,ESE,122,2.0,5.0,17,0.00,,---,0.00,VWS V14.01,2013-08-22 03:37:00,
2013-08-21 20:42:00,84.3,36.2,29.96,WSW,241,1.0,5.0,18,0.00,,---,0.00,VWS V14.01,2013-08-22 03:42:00,
2013-08-21 20:47:00,83.6,35.7,29.96,SSW,208,1.0,5.0,18,0.00,,---,0.00,VWS V14.01,2013-08-22 03:47:00,
2013-08-21 20:52:00,82.4,34.7,29.96,SW,235,0.0,5.0,18,0.00,,---,0.00,VWS V14.01,2013-08-22 03:52:00,
2013-08-21 20:57:00,81.7,34.1,29.97,SW,235,0.0,5.0,18,0.00,,---,0.00,VWS V14.01,2013-08-22 03:57:00,
2013-08-21 21:00:00,81.5,34.0,29.97,SW,235,0.0,5.0,18,0.00,,---,0.00,VWS V14.01,2013-08-22 04:00:00,
2013-08-21 21:01:00,81.2,35.1,29.97,SW,235,0.0,0.0,19,0.00,,---,0.00,VWS V14.01,2013-08-22 04:01:00,
2013-08-21 21:06:00,80.9,34.8,29.97,SW,217,1.0,1.0,19,0.00,,---,0.00,VWS V14.01,2013-08-22 04:06:00,
2013-08-21 21:11:00,80.5,34.5,29.97,WSW,248,0.0,4.0,19,0.00,,---,0.00,VWS V14.01,2013-08-22 04:11:00,
2013-08-21 21:16:00,80.2,32.9,29.97,WSW,248,0.0,4.0,18,0.00,,---,0.00,VWS V14.01,2013-08-22 04:16:00,
2013-08-21 21:21:00,79.5,33.7,29.97,WSW,248,0.0,4.0,19,0.00,,---,0.00,VWS V14.01,2013-08-22 04:21:00,
2013-08-21 21:26:00,78.7,33.0,29.97,WSW,248,0.0,4.0,19,0.00,,---,0.00,VWS V14.01,2013-08-22 04:26:00,
2013-08-21 21:30:00,78.6,32.9,29.97,WSW,248,0.0,4.0,19,0.00,,---,0.00,VWS V14.01,2013-08-22 04:30:00,
2013-08-21 21:31:00,78.0,32.4,29.97,WSW,247,0.0,1.0,19,0.00,,---,0.00,VWS V14.01,2013-08-22 04:31:00,
2013-08-21 21:36:00,77.3,31.9,29.97,SSW,194,2.0,2.0,19,0.00,,---,0.00,VWS V14.01,2013-08-22 04:36:00,
2013-08-21 21:41:00,76.8,34.0,29.97,SSW,202,0.0,2.0,21,0.00,,---,0.00,VWS V14.01,2013-08-22 04:41:00,
2013-08-21 21:46:00,76.7,32.7,29.98,WSW,243,0.0,2.0,20,0.00,,---,0.00,VWS V14.01,2013-08-22 04:46:00,
2013-08-21 21:51:00,76.9,31.5,29.98,West,264,0.0,2.0,19,0.00,,---,0.00,VWS V14.01,2013-08-22 04:51:00,
2013-08-21 21:56:00,76.7,31.4,29.98,West,264,0.0,2.0,19,0.00,,---,0.00,VWS V14.01,2013-08-22 04:56:00,
2013-08-21 22:00:00,76.6,32.6,29.98,West,260,1.0,2.0,20,0.00,,---,0.00,VWS V14.01,2013-08-22 05:00:00,
2013-08-21 22:01:00,76.6,31.3,29.98,West,260,0.0,1.0,19,0.00,,---,0.00,VWS V14.01,2013-08-22 05:01:00,
2013-08-21 22:06:00,76.2,31.0,29.98,SW,218,1.0,3.0,19,0.00,,---,0.00,VWS V14.01,2013-08-22 05:06:00,
2013-08-21 22:11:00,75.7,33.0,29.98,SW,224,0.0,3.0,21,0.00,,---,0.00,VWS V14.01,2013-08-22 05:11:00,
2013-08-21 22:16:00,75.9,33.2,29.98,West,267,0.0,3.0,21,0.00,,---,0.00,VWS V14.01,2013-08-22 05:16:00,
2013-08-21 22:21:00,75.8,31.9,29.98,West,267,0.0,3.0,20,0.00,,---,0.00,VWS V14.01,2013-08-22 05:21:00,
2013-08-21 22:26:00,75.1,31.3,29.99,SW,217,0.0,3.0,20,0.00,,---,0.00,VWS V14.01,2013-08-22 05:26:00,
2013-08-21 22:30:00,74.9,32.4,29.99,SW,217,0.0,3.0,21,0.00,,---,0.00,VWS V14.01,2013-08-22 05:30:00,
2013-08-21 22:31:00,74.6,32.1,29.99,SW,217,0.0,2.0,21,0.00,,---,0.00,VWS V14.01,2013-08-22 05:31:00,
2013-08-21 22:36:00,74.4,32.0,29.98,SW,217,0.0,2.0,21,0.00,,---,0.00,VWS V14.01,2013-08-22 05:36:00,
2013-08-21 22:41:00,74.6,32.1,29.99,SW,217,1.0,2.0,21,0.00,,---,0.00,VWS V14.01,2013-08-22 05:41:00,
2013-08-21 22:46:00,75.4,31.6,29.99,SW,221,2.0,2.0,20,0.00,,---,0.00,VWS V14.01,2013-08-22 05:46:00,
2013-08-21 22:51:00,75.8,33.1,29.99,WNW,285,0.0,2.0,21,0.00,,---,0.00,VWS V14.01,2013-08-22 05:51:00,
2013-08-21 22:56:00,75.2,32.6,29.99,SSW,212,0.0,2.0,21,0.00,,---,0.00,VWS V14.01,2013-08-22 05:56:00,
2013-08-21 23:00:00,75.0,32.5,29.99,SSW,212,0.0,2.0,21,0.00,,---,0.00,VWS V14.01,2013-08-22 06:00:00,
2013-08-21 23:01:00,74.3,31.9,29.99,SSW,212,0.0,0.0,21,0.00,,---,0.00,VWS V14.01,2013-08-22 06:01:00,
2013-08-21 23:06:00,73.9,32.7,29.99,SSW,212,0.0,0.0,22,0.00,,---,0.00,VWS V14.01,2013-08-22 06:06:00,
2013-08-21 23:11:00,73.6,32.5,29.99,SSE,167,0.0,2.0,22,0.00,,---,0.00,VWS V14.01,2013-08-22 06:11:00,
2013-08-21 23:16:00,72.9,33.0,29.99,SSW,194,0.0,2.0,23,0.00,,---,0.00,VWS V14.01,2013-08-22 06:16:00,
2013-08-21 23:21:00,72.9,33.0,29.99,SSW,198,0.0,2.0,23,0.00,,---,0.00,VWS V14.01,2013-08-22 06:21:00,
2013-08-21 23:26:00,72.4,31.4,30.00,SSE,152,1.0,2.0,22,0.00,,---,0.00,VWS V14.01,2013-08-22 06:26:00,
2013-08-21 23:30:00,72.1,31.2,30.00,SSW,200,2.0,2.0,22,0.00,,---,0.00,VWS V14.01,2013-08-22 06:30:00,
2013-08-21 23:31:00,71.7,30.9,30.00,SSW,213,0.0,2.0,22,0.00,,---,0.00,VWS V14.01,2013-08-22 06:31:00,
2013-08-21 23:36:00,72.3,31.4,30.00,SSW,213,0.0,2.0,22,0.00,,---,0.00,VWS V14.01,2013-08-22 06:36:00,
2013-08-21 23:41:00,72.7,30.5,30.00,West,274,1.0,3.0,21,0.00,,---,0.00,VWS V14.01,2013-08-22 06:41:00,
2013-08-21 23:46:00,73.0,30.8,30.00,WSW,248,0.0,3.0,21,0.00,,---,0.00,VWS V14.01,2013-08-22 06:46:00,
2013-08-21 23:51:00,72.6,30.5,30.00,WSW,247,0.0,3.0,21,0.00,,---,0.00,VWS V14.01,2013-08-22 06:51:00,
2013-08-21 23:56:00,72.2,30.1,30.00,WSW,257,0.0,3.0,21,0.00,,---,0.00,VWS V14.01,2013-08-22 06:56:00,